Regional Weather Roundup
Issued by NWS Green Bay, WI

Home | Current Version | Previous Version | Text Only | Print | Product List | Glossary On
Versions: 1 2 3 4 5 6 7 8 9 10 11 12 13 14 15 16 17 18 19 20 21 22 23 24 25 26 27 28 29 30 31 32 33 34 35 36 37 38 39 40 41 42 43 44 45 46 47 48 49 50
000
ASUS43 KGRB 222311
RWRGRB

NORTH-CENTRAL AND NORTHEAST WISCONSIN REGIONAL WEATHER ROUNDUP
NATIONAL WEATHER SERVICE GREEN BAY WI
600 PM CDT TUE AUG 22 2017

WIZ005-009-010>012-018-019-230000-
NORTH CENTRAL WISCONSIN

CITY           SKY/WX    TMP DP  RH WIND       PRES   REMARKS
IRONWOOD       CLOUDY    64  53  67 W9        29.92S
MANITOWISH WTR PTSUNNY   63  51  64 NW13G21   29.93S
ARBOR VITAE    CLOUDY    64  51  62 NW9G17    29.93S
EAGLE RIVER    PTSUNNY   61  51  68 NW9       29.92R
LAND O LAKES   CLOUDY    58  53  82 W6        29.93R
RHINELANDER    CLOUDY    64  50  60 W14G23    29.94R
PHILLIPS       CLOUDY    64  50  60 W7G17     29.96S
ANTIGO         MOSUNNY   64  48  57 NW12G21   29.94R
TOMAHAWK         N/A     65  47  53 NW15G21   29.96R
MERRILL        PTSUNNY   70  48  46 NW16G29   29.95R
$$

WIZ013-073-230000-
NORTHEAST WISCONSIN

CITY           SKY/WX    TMP DP  RH WIND       PRES   REMARKS
IRON MOUNTAIN  SUNNY     68  46  45 NW17G25   29.86R
MARINETTE      MOSUNNY   68  50  52 NW8       29.87S
OCONTO         PTSUNNY   70  48  45 NW9G23    29.88R
$$

WIZ017-030-035>037-045-230000-
CENTRAL WISCONSIN

CITY           SKY/WX    TMP DP  RH WIND       PRES   REMARKS
MEDFORD        MOSUNNY   67  47  48 NW14G25   29.97R
WAUSAU         MOSUNNY   69  46  43 NW16G30   29.93R
MOSINEE        MOSUNNY   70  48  46 NW14G20   29.96R
MARSHFIELD     MOSUNNY   70  47  43 NW17G24   29.96R
WISC RAPIDS    MOSUNNY   73  50  44 NW12G26   29.97R
STEVENS POINT  PTSUNNY   69  48  47 NW13G18   29.95S
WAUPACA        MOSUNNY   74  46  36 W15G25    29.93S
SHAWANO        CLOUDY    72  48  42 NW10      29.90S
CLINTONVILLE   CLOUDY    70  45  40 NW8G17    29.91S
WAUTOMA        PTSUNNY   74  49  41 NW14G23   29.95S
$$

WIZ038-039-048-051-230000-
FOX VALLEY

CITY           SKY/WX    TMP DP  RH WIND       PRES   REMARKS
NWS GREEN BAY  PTSUNNY   70  52  52 W8        29.89S
APPLETON       PTSUNNY   72  43  35 W15G26    29.90F
OSHKOSH        MOSUNNY   72  49  44 NW12      29.92S
FOND DU LAC    SUNNY     73  48  41 NW10      29.93S
$$

WIZ022-050-052-230000-
EAST CENTRAL WISCONSIN

CITY           SKY/WX    TMP DP  RH WIND       PRES   REMARKS
EPHRAIM        FAIR      68  52  55 W6        29.85F
WASHINGTON ISL MOCLDY    68  51  54 NW9       29.84S
STURGEON BAY   MOSUNNY   69  52  54 NW13      29.88R
MANITOWOC      SUNNY     72  48  42 NW14G20   29.90R
SHEBOYGAN      PTSUNNY   73  52  47 NW14      29.91S
$$

LMZ563-521-522-541>543-230000-
LAKESHORE

STATION/POSITION TIME  TEMP    WIND        PRES    VSBY  WAVE
                       AIR SEA DIR/SP/G                  HT/PER
                 (UTC) (F)     (DEG/KT/KT) (MB)    (MI)  (FT/S)
SHEBOYGAN LKSHOR 2300   72     300/ 11/ 14 1012.4R
KEWAUNEE LKSHORE 2248   73     290/  7/ 16 1010.8S
NORTHPORT PIER   2240   71     310/ 10/ 16 1010.5R
N MID LAKE BUOY  2250   68 67  290/ 17/ 21 1010.2R         3/ 5
S GREEN BAY BUOY 2230   72 71  300/ 14/ 17 1011.5R
SISTER BAY LKSHO 2218   70     290/ 22/ 25   N/A
MENOMINEE LKSHOR 2248   70     290/  9/ 15 1011.1R
$$



USA.gov is the U.S. government's official web portal to all federal, state and local government web resources and services.